Wind_Speed
22 23 23 23 23 22 21 20 20 21 21 22 22 22 23 23 23 24 22 22 22 22 22 22 22 23 23 23 24 24 24 24 24 24 23 23 23 22 21 21 20 20 19 17 16 15 14 13 12
23 23 24 24 24 23 22 22 22 23 23 23 24 24 25 25 25 25 25 25 25 25 25 25 25 25 25 25 25 25 26 26 26 26 26 25 25 24 23 22 22 22 21 20 19 17 16 15 14
23 24 24 24 24 23 23 23 24 24 25 25 26 27 27 27 27 28 27 28 28 28 28 28 28 28 27 27 27 27 27 27 27 27 27 27 27 26 26 25 24 24 23 22 21 20 19 18 16
24 24 25 25 24 24 24 25 26 26 26 27 27 28 29 29 29 30 30 31 31 31 31 31 31 31 31 30 30 30 30 29 30 29 29 29 29 29 28 27 27 26 25 23 22 22 21 20 19
24 25 25 25 25 25 25 26 26 27 28 28 29 30 30 31 32 32 32 33 33 34 34 34 34 34 34 33 33 33 33 33 33 33 32 32 31 31 31 30 29 28 27 26 25 24 23 22 21
24 25 25 25 26 26 27 27 28 28 29 30 31 32 32 33 33 34 34 35 35 36 36 36 37 37 37 37 37 36 36 36 36 36 35 35 34 33 33 33 32 31 30 28 27 26 25 24 23
23 24 25 25 26 27 27 28 29 29 30 31 32 33 33 34 35 36 37 37 38 39 39 39 39 39 39 39 40 39 39 39 39 39 38 38 37 36 36 35 34 34 33 32 30 29 28 26 25
22 23 24 25 26 27 28 29 30 31 31 32 33 33 33 35 36 37 38 39 40 41 41 41 42 42 42 42 42 42 42 42 42 42 41 41 40 39 39 38 38 37 36 35 33 32 30 29 28
22 23 23 24 25 26 27 29 30 31 32 33 33 34 35 36 37 38 39 40 41 42 43 44 44 44 45 45 44 44 45 45 45 45 44 44 44 43 42 41 41 40 39 38 36 35 34 32 31
21 22 23 24 24 25 26 27 28 29 31 32 33 34 36 36 38 39 40 41 42 43 44 45 46 47 47 48 47 47 48 48 48 48 47 47 47 46 45 44 44 43 42 41 40 38 37 35 34
21 22 22 23 24 24 25 26 27 29 30 32 33 35 36 38 40 41 42 43 43 45 46 47 48 49 49 50 50 50 51 51 51 51 50 50 50 49 48 47 47 46 46 44 43 41 40 38 37
20 21 22 23 24 24 26 27 28 30 31 33 35 36 38 40 41 42 44 44 45 46 48 49 50 51 51 52 53 53 54 54 54 54 54 54 54 53 52 51 50 49 48 47 45 44 43 41 40
19 21 22 22 23 24 26 27 28 30 32 33 35 37 39 40 42 43 44 45 46 47 49 50 51 52 53 54 55 55 57 57 57 57 57 57 57 56 55 54 53 52 51 50 49 47 46 45 43
19 20 22 23 24 25 27 28 29 30 33 34 36 38 39 41 42 43 44 45 46 47 49 50 52 53 55 56 57 57 58 59 59 60 60 60 59 59 58 57 56 56 54 53 52 50 49 47 46
19 20 21 23 24 25 27 28 30 31 33 35 37 39 41 42 42 43 43 44 46 48 49 51 53 55 56 57 59 60 60 61 61 62 62 62 62 61 61 61 60 58 57 56 55 53 51 50 48
20 21 23 24 25 26 28 28 31 33 34 36 38 39 40 41 42 43 43 44 46 48 50 52 54 55 57 58 60 61 61 61 62 63 63 63 64 64 63 63 63 62 60 59 58 56 54 53 51
21 22 24 25 26 27 28 29 32 34 35 36 37 38 39 41 42 43 44 46 47 48 50 51 53 55 57 58 60 61 61 61 62 63 63 64 65 65 65 65 65 64 62 61 60 59 57 55 54
22 23 25 27 27 28 29 30 33 35 36 36 36 37 39 40 42 42 45 46 47 48 49 51 52 53 55 57 58 60 60 60 61 62 63 64 64 65 65 66 66 66 65 63 62 62 60 59 58
24 25 26 28 29 30 30 31 33 35 36 35 35 37 39 40 42 43 45 46 46 47 48 49 50 51 53 54 55 57 58 59 59 60 62 63 63 64 65 66 66 66 66 65 64 64 63 62 61
26 27 28 29 31 32 31 31 33 34 35 35 36 37 39 40 42 42 43 44 44 45 46 47 48 49 50 52 53 54 56 57 58 59 61 62 63 64 65 65 65 65 66 66 65 65 65 64 63
28 29 30 31 32 33 34 33 33 33 34 35 36 38 40 41 42 41 43 43 43 44 45 46 47 48 48 49 50 52 53 55 56 57 59 61 62 63 64 65 65 65 66 66 67 66 66 65 65
30 30 31 32 33 34 34 35 33 34 34 36 37 39 41 41 42 42 42 42 42 44 45 45 46 46 46 46 47 50 50 52 54 55 56 58 60 62 63 64 65 65 65 66 66 65 66 66 65
32 33 33 34 35 35 35 37 35 35 36 37 39 40 41 42 42 42 42 42 42 44 44 44 44 44 44 45 47 48 49 50 52 54 55 56 58 60 61 62 63 64 64 64 65 65 66 66 66
34 35 35 36 36 36 35 37 37 37 37 38 40 41 42 42 42 42 43 43 43 43 43 43 41 42 43 44 46 47 47 49 50 52 53 54 56 57 58 61 63 62 63 63 64 65 65 66 66
35 36 37 38 38 38 37 38 37 38 39 40 41 42 43 43 43 43 43 44 44 44 43 41 41 41 43 44 45 45 47 48 48 49 52 53 55 57 58 60 62 61 62 63 62 64 63 65 66
35 36 37 39 40 40 39 39 39 39 40 42 43 43 44 43 43 44 44 44 44 43 42 41 41 41 43 44 44 45 46 46 47 49 51 53 53 53 56 58 61 60 59 60 60 61 61 63 64
36 36 37 39 41 41 41 41 40 41 42 43 44 44 44 44 44 45 45 44 44 43 42 41 42 43 43 43 44 45 46 46 46 47 49 51 52 52 55 57 59 58 57 56 58 58 58 60 62
38 38 38 38 41 43 44 42 42 42 43 44 45 45 45 46 46 46 45 44 44 43 43 43 44 45 44 43 43 44 44 44 44 45 46 49 50 51 53 54 55 57 57 55 55 57 57 59 60
38 38 39 40 41 43 45 43 43 44 45 45 46 46 46 47 47 46 45 45 44 43 43 43 44 44 44 43 42 41 42 43 42 42 43 45 47 48 51 51 52 54 55 55 55 55 56 57 58
39 39 40 41 42 43 46 45 43 44 45 46 46 47 47 47 48 47 45 44 44 42 42 42 42 43 42 40 40 40 39 39 40 40 40 41 43 45 47 48 49 51 52 51 52 54 54 55 56
Wind_Direction
250 250 251 251 251 252 253 254 254 253 253 252 252 252 251 252 252 254 255 254 253 252 251 250 249 247 246 245 245 245 245 244 244 243 242 242 242 242 241 241 241 241 240 241 241 242 244 244 244
250 250 250 251 252 253 254 254 254 254 255 255 255 255 254 253 254 255 255 254 253 252 251 250 249 249 248 247 246 245 246 245 245 245 244 243 243 243 242 242 243 243 242 242 243 244 244 245 246
251 251 251 252 253 254 254 254 254 255 256 256 256 256 256 256 256 256 255 255 254 253 252 251 250 250 250 249 249 247 247 247 247 246 246 245 244 243 243 243 244 245 244 244 244 243 244 245 248
251 251 252 253 254 255 256 255 255 256 257 258 258 258 259 259 258 257 256 255 254 254 253 252 251 250 250 250 250 250 249 248 248 248 248 248 247 246 245 246 245 245 246 246 244 244 245 246 247
252 253 254 255 256 256 257 258 258 258 259 260 260 260 260 259 259 258 257 257 256 255 254 253 251 250 250 250 250 250 250 250 249 249 249 249 248 247 247 247 247 246 246 246 246 246 246 246 247
253 254 255 256 257 258 258 259 260 261 262 263 263 263 262 261 260 259 258 258 257 256 256 255 253 252 251 250 250 250 250 250 250 250 249 249 249 249 248 248 248 248 247 247 246 247 248 247 249
255 255 256 257 258 259 260 261 262 263 264 265 265 265 264 263 263 261 260 259 258 258 257 256 255 253 252 251 251 251 251 250 250 250 249 249 249 249 249 248 247 247 248 249 248 247 247 249 249
257 257 258 259 260 261 262 263 264 265 266 266 267 267 266 265 264 264 263 262 261 259 258 257 255 254 253 251 251 251 251 251 250 250 249 249 248 248 249 248 248 248 248 249 249 248 248 248 249
258 259 261 261 263 264 265 266 266 267 268 268 268 268 268 267 267 266 266 265 263 261 259 258 256 255 254 253 252 251 251 251 251 250 249 249 248 248 249 249 249 248 248 248 249 249 248 248 249
260 261 262 264 265 267 267 269 269 270 271 271 270 270 270 270 269 268 268 267 266 264 262 260 258 256 255 254 253 252 252 251 250 250 250 249 249 249 249 250 249 249 248 247 248 249 249 249 249
263 264 265 266 267 269 270 271 273 273 273 273 273 273 274 273 271 270 269 268 267 266 264 263 259 257 256 255 254 253 252 252 251 250 250 250 249 249 249 249 249 249 248 247 247 248 248 249 249
267 267 268 269 270 272 273 274 276 276 276 276 276 277 277 277 275 273 270 269 267 267 265 263 261 259 258 256 255 254 253 252 251 250 250 250 249 249 249 248 249 249 249 248 248 247 247 248 250
271 271 272 273 275 276 277 279 279 280 280 280 280 281 279 279 278 275 272 270 269 267 266 264 261 260 258 257 255 255 254 253 252 251 250 250 249 249 249 249 249 249 249 249 248 247 248 248 249
276 275 276 277 278 280 281 283 283 283 284 284 284 284 283 282 281 278 275 273 270 269 267 265 263 261 260 258 256 256 254 254 253 253 252 251 250 250 249 248 248 248 248 249 248 248 248 248 248
280 281 281 282 283 284 285 287 287 287 288 288 288 287 286 285 284 281 278 275 273 271 269 267 265 264 262 260 257 256 256 255 254 253 253 252 251 251 249 248 247 247 248 247 247 247 248 248 248
283 285 285 285 286 287 288 291 291 291 291 292 291 290 288 287 286 283 280 278 275 272 271 270 268 267 265 262 258 256 256 255 254 253 253 252 252 251 250 248 247 246 247 247 246 246 247 247 248
285 287 288 288 288 290 291 293 294 295 295 295 294 292 290 290 289 285 282 281 278 275 273 272 271 268 266 263 258 256 255 254 254 254 253 253 251 250 249 247 246 246 246 246 245 245 245 246 247
287 289 289 289 290 292 294 295 296 297 297 297 296 294 293 292 291 288 286 284 282 279 277 276 274 271 268 264 260 257 255 254 254 254 254 253 251 250 248 246 245 244 245 245 246 244 244 245 245
290 291 291 291 292 294 296 297 297 298 298 298 297 296 295 294 293 291 289 286 285 283 281 279 277 275 271 266 260 258 256 255 255 254 254 253 252 250 248 246 244 244 244 244 245 245 243 244 244
290 292 293 293 293 295 297 298 298 298 298 299 299 299 298 296 296 293 292 291 287 285 283 281 280 278 274 269 263 259 258 256 255 255 254 252 251 250 248 246 243 243 243 243 244 244 244 243 243
292 293 294 295 295 296 297 298 299 299 299 300 300 301 300 300 299 296 294 293 289 287 285 283 282 280 276 272 266 261 259 258 256 256 255 253 251 249 247 246 243 243 243 243 243 243 243 242 242
293 294 295 296 297 299 299 299 300 301 301 301 301 301 302 302 300 298 297 295 293 290 286 284 284 281 277 274 270 264 261 259 258 257 255 252 250 248 246 244 243 243 242 243 241 241 242 242 242
292 294 296 297 298 299 300 300 301 303 303 303 303 303 303 303 302 299 299 297 295 292 289 286 284 281 278 276 273 269 264 261 259 257 255 253 250 248 246 244 243 242 242 243 241 241 242 242 241
292 294 295 295 297 298 300 301 303 305 306 305 305 305 305 304 302 300 299 298 297 294 291 288 284 282 280 277 274 271 268 264 260 257 255 253 250 248 246 244 243 242 242 243 242 241 241 241 239
292 294 295 295 296 298 300 301 304 306 307 307 307 307 306 306 304 302 301 300 299 296 291 288 285 282 282 280 276 273 273 267 261 258 256 254 252 249 246 244 243 243 243 242 242 241 240 240 239
290 292 293 294 295 297 299 301 305 307 308 308 309 308 307 307 304 302 302 301 300 297 293 290 287 285 284 281 277 276 276 270 265 262 259 255 252 250 247 245 243 242 242 241 241 239 240 239 238
289 289 291 291 293 294 297 300 303 306 307 308 309 309 308 307 304 303 302 301 300 298 296 293 291 288 287 283 280 278 276 272 267 264 259 255 252 250 247 244 240 240 240 240 238 238 238 238 237
286 288 289 290 293 295 297 300 304 305 307 308 308 308 308 307 306 305 303 301 300 298 296 296 295 292 289 286 284 281 277 273 269 266 260 254 250 248 245 242 240 240 239 239 238 237 238 237 235
285 286 287 288 291 294 296 300 303 305 306 307 307 307 307 308 307 305 302 301 300 298 296 296 296 295 293 289 286 284 280 275 270 266 259 253 249 246 243 241 239 238 237 238 238 237 238 236 235
283 284 286 288 290 292 294 298 301 303 305 305 305 305 307 308 307 305 302 301 300 299 297 296 296 296 294 291 288 285 283 278 272 266 260 253 248 245 242 239 237 236 235 235 236 237 237 237 235
Height
5825 5826 5828 5829 5831 5832 5832 5833 5833 5834 5834 5835 5836 5836 5837 5838 5839 5842 5841 5841 5841 5841 5842 5843 5844 5845 5846 5846 5847 5848 5849 5850 5851 5852 5853 5853 5854 5855 5856 5856 5857 5857 5858 5858 5859 5859 5859 5859 5859
5821 5822 5824 5825 5826 5827 5828 5829 5829 5829 5830 5830 5831 5831 5832 5833 5834 5834 5835 5835 5836 5837 5837 5838 5839 5840 5841 5842 5843 5844 5845 5846 5847 5848 5848 5849 5850 5851 5852 5853 5853 5854 5854 5855 5855 5856 5856 5856 5856
5816 5817 5819 5820 5821 5822 5823 5823 5823 5824 5824 5825 5825 5826 5826 5827 5828 5828 5829 5829 5830 5831 5832 5833 5834 5835 5836 5837 5838 5839 5840 5841 5842 5843 5844 5845 5846 5847 5848 5849 5849 5850 5851 5851 5852 5852 5853 5853 5853
5811 5813 5814 5815 5816 5817 5817 5818 5818 5818 5819 5819 5819 5820 5821 5822 5822 5822 5823 5823 5824 5825 5825 5827 5828 5829 5831 5832 5833 5834 5835 5836 5837 5837 5839 5840 5841 5842 5843 5844 5845 5846 5847 5847 5848 5849 5849 5850 5850
5806 5807 5809 5810 5810 5811 5811 5812 5812 5812 5813 5813 5813 5814 5814 5815 5815 5815 5816 5816 5817 5818 5819 5820 5821 5822 5824 5825 5826 5828 5829 5830 5831 5832 5833 5834 5835 5837 5838 5839 5840 5841 5842 5843 5844 5844 5845 5845 5846
5801 5802 5803 5804 5805 5805 5805 5806 5806 5806 5806 5807 5807 5807 5807 5807 5808 5808 5809 5809 5810 5810 5811 5812 5813 5815 5816 5818 5819 5820 5822 5823 5824 5825 5827 5828 5829 5830 5832 5833 5835 5836 5837 5838 5839 5840 5840 5841 5842
5797 5797 5797 5798 5799 5799 5800 5799 5800 5800 5800 5800 5799 5799 5800 5800 5800 5800 5801 5801 5802 5802 5803 5804 5805 5807 5808 5810 5811 5813 5814 5815 5817 5818 5819 5821 5822 5824 5825 5827 5828 5830 5831 5832 5834 5835 5836 5836 5837
5790 5792 5792 5792 5793 5793 5793 5793 5793 5793 5793 5793 5792 5792 5793 5792 5792 5792 5792 5792 5792 5793 5794 5795 5796 5797 5799 5801 5803 5804 5806 5807 5809 5810 5812 5813 5815 5816 5818 5819 5821 5823 5824 5826 5827 5829 5830 5831 5832
5785 5787 5786 5787 5787 5787 5787 5786 5786 5786 5785 5785 5784 5784 5784 5784 5783 5783 5783 5782 5783 5783 5784 5784 5786 5787 5789 5791 5793 5794 5796 5798 5799 5801 5803 5805 5806 5808 5810 5812 5813 5815 5817 5819 5820 5822 5824 5825 5826
5780 5780 5781 5781 5781 5781 5780 5780 5779 5779 5778 5777 5777 5776 5775 5775 5774 5773 5773 5772 5772 5772 5772 5773 5774 5776 5778 5780 5782 5784 5786 5787 5789 5791 5793 5795 5797 5799 5801 5803 5805 5807 5808 5810 5812 5815 5816 5818 5819
5774 5775 5775 5775 5775 5774 5774 5773 5772 5771 5771 5770 5769 5768 5766 5765 5764 5763 5762 5761 5761 5761 5761 5760 5762 5763 5765 5768 5770 5772 5773 5775 5778 5780 5782 5784 5787 5789 5792 5794 5796 5798 5800 5802 5804 5806 5809 5811 5812
5769 5769 5769 5769 5768 5768 5767 5766 5765 5764 5763 5761 5760 5758 5757 5755 5752 5751 5751 5750 5749 5749 5749 5748 5749 5750 5752 5754 5757 5758 5760 5763 5765 5768 5770 5773 5775 5778 5781 5784 5786 5788 5790 5793 5795 5798 5800 5802 5804
5763 5763 5763 5762 5762 5761 5760 5759 5758 5757 5755 5753 5751 5749 5746 5744 5741 5739 5738 5737 5737 5736 5736 5736 5736 5737 5738 5740 5742 5744 5746 5749 5751 5754 5757 5759 5763 5766 5769 5772 5775 5777 5780 5782 5785 5788 5790 5793 5796
5757 5757 5757 5756 5755 5754 5753 5751 5750 5749 5746 5744 5741 5738 5735 5732 5729 5726 5725 5724 5723 5722 5722 5722 5722 5722 5723 5725 5727 5729 5731 5733 5736 5739 5742 5745 5748 5752 5756 5759 5762 5765 5768 5771 5774 5778 5780 5783 5786
5751 5751 5750 5749 5748 5747 5746 5744 5742 5740 5737 5734 5731 5728 5724 5720 5717 5714 5712 5711 5709 5709 5708 5707 5707 5707 5708 5709 5710 5712 5715 5717 5720 5723 5726 5729 5732 5736 5740 5744 5748 5752 5755 5759 5762 5766 5769 5772 5776
5746 5745 5744 5743 5741 5740 5740 5737 5733 5731 5728 5724 5721 5717 5713 5709 5706 5703 5700 5698 5696 5695 5693 5692 5691 5691 5691 5691 5693 5695 5697 5700 5702 5705 5709 5712 5715 5719 5723 5728 5733 5737 5741 5745 5749 5753 5758 5761 5765
5740 5739 5737 5736 5734 5732 5731 5729 5725 5722 5718 5715 5711 5707 5703 5699 5695 5691 5688 5685 5683 5680 5678 5677 5675 5674 5673 5673 5675 5677 5680 5682 5684 5687 5690 5694 5697 5701 5705 5710 5716 5721 5726 5731 5736 5740 5745 5749 5753
5734 5732 5731 5729 5727 5725 5723 5721 5717 5713 5709 5706 5701 5697 5693 5688 5684 5679 5676 5672 5668 5665 5663 5661 5658 5657 5655 5655 5656 5658 5661 5664 5666 5669 5672 5675 5679 5682 5686 5692 5698 5704 5710 5716 5721 5726 5731 5735 5740
5727 5725 5724 5722 5719 5717 5715 5713 5709 5704 5700 5696 5692 5687 5683 5678 5673 5668 5663 5659 5655 5651 5648 5645 5643 5640 5638 5638 5639 5641 5643 5646 5649 5651 5653 5656 5660 5664 5668 5674 5681 5687 5693 5700 5705 5710 5716 5721 5726
5719 5718 5716 5714 5711 5709 5707 5704 5700 5696 5691 5687 5682 5678 5673 5668 5662 5657 5651 5647 5642 5638 5634 5631 5628 5626 5623 5622 5622 5624 5626 5629 5631 5633 5635 5638 5642 5646 5651 5656 5664 5670 5677 5683 5688 5694 5700 5706 5710
5712 5710 5708 5706 5703 5700 5698 5696 5692 5688 5683 5678 5673 5668 5663 5657 5652 5646 5641 5635 5630 5625 5621 5618 5615 5612 5609 5607 5606 5607 5610 5612 5614 5616 5618 5621 5624 5628 5633 5639 5646 5652 5659 5665 5671 5677 5683 5690 5695
5704 5702 5699 5697 5694 5692 5689 5685 5684 5679 5674 5668 5663 5658 5652 5647 5641 5636 5630 5625 5619 5614 5609 5606 5602 5599 5596 5595 5594 5593 5594 5597 5599 5600 5601 5604 5607 5612 5616 5622 5628 5634 5641 5647 5654 5660 5666 5673 5679
5695 5693 5691 5688 5685 5683 5680 5675 5674 5669 5664 5659 5653 5648 5642 5636 5630 5625 5620 5614 5609 5603 5598 5595 5591 5588 5585 5583 5581 5580 5580 5582 5583 5584 5586 5588 5591 5595 5600 5606 5612 5618 5624 5630 5636 5643 5650 5656 5663
5687 5685 5682 5679 5676 5674 5671 5667 5663 5659 5654 5649 5643 5637 5631 5625 5619 5614 5609 5604 5598 5593 5589 5584 5580 5578 5575 5572 5569 5568 5567 5568 5569 5569 5571 5573 5576 5580 5584 5589 5595 5601 5607 5613 5620 5627 5633 5640 5647
5678 5676 5673 5669 5667 5664 5661 5657 5655 5649 5644 5638 5632 5627 5620 5614 5609 5603 5598 5593 5588 5583 5578 5574 5570 5567 5564 5560 5558 5556 5555 5554 5555 5556 5557 5559 5561 5565 5569 5573 5579 5585 5591 5597 5603 5610 5617 5623 5631
5669 5667 5665 5660 5657 5654 5651 5647 5646 5640 5634 5627 5622 5616 5609 5604 5598 5592 5587 5582 5576 5571 5567 5563 5559 5556 5552 5548 5545 5543 5541 5540 5541 5541 5542 5544 5546 5549 5553 5558 5563 5570 5575 5581 5587 5594 5601 5608 5616
5660 5658 5655 5651 5646 5644 5641 5639 5636 5630 5624 5618 5612 5606 5599 5593 5588 5582 5576 5571 5565 5560 5556 5552 5548 5544 5540 5536 5533 5530 5528 5526 5526 5526 5526 5528 5531 5534 5537 5542 5548 5554 5560 5566 5572 5578 5586 5593 5601
5650 5648 5645 5641 5636 5632 5631 5629 5626 5620 5614 5609 5602 5596 5589 5583 5577 5572 5566 5560 5555 5550 5546 5541 5537 5532 5528 5524 5520 5517 5515 5513 5512 5511 5511 5513 5515 5519 5523 5527 5533 5539 5545 5551 5557 5565 5572 5579 5588
5640 5638 5634 5630 5627 5623 5619 5622 5616 5610 5604 5598 5592 5585 5579 5573 5567 5561 5555 5550 5544 5539 5535 5530 5525 5521 5516 5512 5509 5505 5502 5499 5498 5497 5497 5499 5502 5505 5510 5514 5519 5525 5531 5537 5544 5552 5559 5567 5574
5628 5627 5624 5621 5617 5612 5608 5612 5606 5600 5593 5587 5581 5575 5569 5563 5556 5550 5545 5539 5534 5529 5524 5519 5514 5509 5504 5500 5497 5493 5489 5487 5485 5485 5485 5486 5489 5493 5497 5501 5506 5512 5519 5525 5531 5539 5547 5554 5562